Flag for China Weather past 2 weeks in Foochow, Fujian, China

Now
68 °F

Fog.


Feels Like: 68 °F
Forecast: 62 / 89 °F
Wind: 3 mph from Southwest

Location: Fuzhou Airport

Current Time: Apr 1, 2015 at 6:51:28 AM

Latest Report: Apr 1, 2015 at 6:00 AM


Visibility: 2 mi

Pressure: 29.89 "Hg

Humidity: 94%

Dew point: 66 °F

Location of FoochowLocation

Historic Weather in Foochow — Graph

°F

Foochow temperature yesterday

Maximum temperature yesterday: 81 °F (at 1:00 PM)
Minimum temperature yesterday: 61 °F (at 6:00 AM)
Average temperature yesterday: 72 °F

Past Weeks' High & Low Weather Summary

 TemperatureHumidityPressure
High81 °F (Mar 31, 1:00 PM)100% (Mar 19, 7:00 AM)30.48 "Hg (Mar 19, 7:00 AM)
Low48 °F (Mar 23, 11:00 AM)39% (Mar 23, 12:00 AM)29.74 "Hg (Mar 18, 3:00 PM)
Average61 °F77%30.11 "Hg
* Reported Mar 17 5:00 AM — Apr 1 5:00 AM, Foochow, Weather by CustomWeather, © 2015

Note: Actual official high and low records may vary slightly from our data, if they occured in-between our weather recording intervals... More about our weather records

Advertising

Foochow weather history for previous 24 hours

 ConditionsComfort  
Time TempWeatherWind HumidityBarometerVisibility
5:00 AM
Wed, Apr 1
68 °FFog.1 mph94%29.89 "Hg1 mi
4:00 AM70 °FFog.8 mph94%29.86 "Hg2 mi
3:00 AM68 °FFog.6 mph94%29.89 "Hg2 mi
2:00 AM70 °FFog.8 mph88%29.89 "Hg3 mi
1:00 AM70 °FClear.6 mph88%29.89 "Hg4 mi
12:00 AM72 °FClear.10 mph83%29.89 "Hg10 mi
11:00 PM
Tue, Mar 31
75 °FClear.8 mph78%29.89 "Hg10 mi
10:00 PM77 °FPassing clouds.6 mph74%29.89 "HgN/A
9:00 PM73 °FClear.10 mph78%29.89 "Hg10 mi
8:00 PM72 °FPassing clouds.8 mph83%29.89 "HgN/A
7:00 PM75 °FClear.13 mph74%29.83 "Hg10 mi
6:00 PM77 °FSunny.13 mph74%29.86 "Hg10 mi
5:00 PM79 °FSunny.20 mph70%29.83 "Hg10 mi
4:00 PM79 °FPassing clouds.17 mph70%29.83 "HgN/A
3:00 PM81 °FPassing clouds.17 mph66%29.83 "HgN/A
2:00 PM79 °FPassing clouds.15 mph70%29.86 "HgN/A
1:00 PM81 °FPassing clouds.17 mph66%29.89 "HgN/A
12:00 PM79 °FPassing clouds.17 mph70%29.92 "Hg6 mi
11:00 AM77 °FPassing clouds.13 mph69%29.95 "Hg4 mi
10:00 AM73 °FHaze.3 mph74%29.98 "Hg3 mi
9:00 AM72 °FFog.3 mph78%29.98 "Hg3 mi
8:00 AM68 °FFog.1 mph83%29.98 "Hg3 mi
7:00 AM64 °FFog.1 mph88%29.98 "Hg2 mi
6:00 AM61 °FFog.1 mph94%29.95 "Hg2 mi
Weather by CustomWeather, © 2015

See weather overviewHow to use our weather pages